| time (UTC) | temp F | wind direction | speed MPH | gust MPH | rain 1hr in | rain 24hr in | rain mn in | humidity % | barometer mb |
| 20260509224010 | 55 | 191 | 2.0 | 6.0 | 0.00 | 0.62 | 0.62 | 92 | 1007.9 |
| 20260509223511 | 55 | 201 | 2.0 | 6.0 | 0.00 | 0.62 | 0.62 | 93 | 1007.8 |
| 20260509223030 | 55 | 186 | 4.0 | 7.0 | 0.00 | 0.62 | 0.62 | 93 | 1007.8 |
| 20260509222510 | 55 | 192 | 2.0 | 7.0 | 0.00 | 0.62 | 0.62 | 94 | 1007.9 |
| 20260509222009 | 54 | 192 | 3.0 | 9.0 | 0.00 | 0.62 | 0.62 | 94 | 1007.9 |
| 20260509221526 | 54 | 191 | 5.0 | 9.0 | 0.00 | 0.62 | 0.62 | 95 | 1007.9 |
| 20260509221010 | 54 | 185 | 2.0 | 5.0 | 0.00 | 0.62 | 0.62 | 95 | 1008.0 |
| 20260509220514 | 53 | 161 | 2.0 | 6.0 | 0.00 | 0.62 | 0.62 | 95 | 1008.3 |
| 20260509220030 | 53 | 153 | 2.0 | 6.0 | 0.00 | 0.62 | 0.62 | 95 | 1008.3 |
| 20260509215512 | 53 | 159 | 2.0 | 6.0 | 0.00 | 0.62 | 0.62 | 95 | 1008.4 |
| 20260509215013 | 53 | 178 | 2.0 | 6.0 | 0.00 | 0.62 | 0.62 | 95 | 1008.5 |
| 20260509214530 | 53 | 191 | 1.0 | 6.0 | 0.00 | 0.62 | 0.62 | 95 | 1008.6 |
| 20260509214011 | 53 | 168 | 2.0 | 5.0 | 0.00 | 0.62 | 0.62 | 95 | 1008.7 |
| 20260509213513 | 53 | 167 | 2.0 | 5.0 | 0.00 | 0.62 | 0.62 | 95 | 1008.8 |
| 20260509213026 | 53 | 144 | 0.0 | 6.0 | 0.00 | 0.62 | 0.62 | 95 | 1008.8 |
| 20260509212510 | 53 | 169 | 2.0 | 9.0 | 0.00 | 0.62 | 0.62 | 95 | 1008.8 |
| 20260509212013 | 53 | 196 | 2.0 | 9.0 | 0.00 | 0.62 | 0.62 | 95 | 1008.8 |
| 20260509211528 | 52 | 187 | 2.0 | 7.0 | 0.01 | 0.62 | 0.62 | 95 | 1008.7 |
| 20260509211012 | 53 | 194 | 3.0 | 7.0 | 0.01 | 0.62 | 0.62 | 95 | 1008.8 |
| 20260509210514 | 52 | 172 | 1.0 | 7.0 | 0.02 | 0.62 | 0.62 | 95 | 1008.9 |
| 20260509210028 | 52 | 180 | 1.0 | 4.0 | 0.02 | 0.62 | 0.62 | 95 | 1008.9 |
| 20260509205511 | 52 | 188 | 1.0 | 6.0 | 0.02 | 0.62 | 0.62 | 95 | 1008.9 |
| 20260509205011 | 52 | 192 | 2.0 | 6.0 | 0.02 | 0.62 | 0.62 | 95 | 1008.9 |
| 20260509204530 | 52 | 202 | 2.0 | 7.0 | 0.02 | 0.62 | 0.62 | 94 | 1009.0 |
| 20260509204012 | 52 | 186 | 0.0 | 7.0 | 0.02 | 0.62 | 0.62 | 94 | 1009.0 |
| 20260509203511 | 52 | 187 | 3.0 | 7.0 | 0.02 | 0.62 | 0.62 | 94 | 1009.0 |
| 20260509203034 | 52 | 198 | 2.0 | 7.0 | 0.03 | 0.62 | 0.62 | 95 | 1009.1 |
| 20260509202510 | 52 | 195 | 2.0 | 5.0 | 0.03 | 0.62 | 0.62 | 95 | 1009.1 |
| 20260509202011 | 52 | 191 | 2.0 | 5.0 | 0.03 | 0.62 | 0.62 | 95 | 1009.1 |
| 20260509201530 | 52 | 205 | 2.0 | 6.0 | 0.02 | 0.61 | 0.61 | 95 | 1009.1 |
| 20260509201011 | 51 | 194 | 2.0 | 8.0 | 0.02 | 0.61 | 0.61 | 95 | 1009.1 |
| 20260509200511 | 51 | 183 | 5.0 | 9.0 | 0.01 | 0.60 | 0.60 | 94 | 1009.1 |
| 20260509200028 | 51 | 207 | 4.0 | 10.0 | 0.01 | 0.60 | 0.60 | 95 | 1009.2 |
| 20260509195513 | 51 | 238 | 5.0 | 10.0 | 0.01 | 0.60 | 0.60 | 95 | 1009.3 |
| 20260509195010 | 51 | 226 | 4.0 | 9.0 | 0.02 | 0.60 | 0.60 | 95 | 1009.4 |
| 20260509194533 | 51 | 205 | 5.0 | 12.0 | 0.02 | 0.60 | 0.60 | 95 | 1009.4 |
| 20260509194015 | 51 | 213 | 5.0 | 12.0 | 0.02 | 0.60 | 0.60 | 94 | 1009.4 |
| 20260509193513 | 51 | 203 | 4.0 | 10.0 | 0.02 | 0.60 | 0.60 | 95 | 1009.6 |
| 20260509193030 | 51 | 200 | 7.0 | 11.0 | 0.01 | 0.58 | 0.58 | 94 | 1009.6 |
| 20260509192511 | 51 | 195 | 4.0 | 11.0 | 0.01 | 0.58 | 0.58 | 95 | 1009.6 |
| 20260509192011 | 51 | 192 | 4.0 | 10.0 | 0.01 | 0.58 | 0.58 | 95 | 1009.6 |
| 20260509191528 | 51 | 178 | 4.0 | 10.0 | 0.01 | 0.58 | 0.58 | 95 | 1009.6 |
| 20260509191015 | 52 | 170 | 4.0 | 11.0 | 0.01 | 0.58 | 0.58 | 95 | 1009.6 |
| 20260509190513 | 51 | 203 | 5.0 | 13.0 | 0.01 | 0.58 | 0.58 | 95 | 1009.6 |
| 20260509190029 | 51 | 165 | 5.0 | 13.0 | 0.01 | 0.58 | 0.58 | 95 | 1009.7 |
| 20260509185513 | 51 | 186 | 7.0 | 13.0 | 0.01 | 0.58 | 0.58 | 95 | 1009.8 |
| 20260509185010 | 51 | 230 | 4.0 | 10.0 | 0.00 | 0.58 | 0.58 | 95 | 1009.8 |
| 20260509184528 | 51 | 191 | 6.0 | 10.0 | 0.00 | 0.58 | 0.58 | 95 | 1009.8 |
| 20260509184012 | 51 | 253 | 7.0 | 13.0 | 0.01 | 0.58 | 0.58 | 95 | 1009.8 |
| 20260509183510 | 51 | 194 | 6.0 | 13.0 | 0.02 | 0.58 | 0.58 | 95 | 1009.9 |
| 20260509183028 | 51 | 194 | 7.0 | 13.0 | 0.02 | 0.58 | 0.58 | 95 | 1009.9 |
| 20260509182514 | 51 | 206 | 6.0 | 13.0 | 0.02 | 0.58 | 0.58 | 95 | 1009.9 |
| 20260509182015 | 51 | 178 | 7.0 | 13.0 | 0.03 | 0.58 | 0.58 | 95 | 1009.7 |
| 20260509181541 | 51 | 196 | 6.0 | 12.0 | 0.04 | 0.58 | 0.58 | 96 | 1009.7 |
| 20260509181014 | 51 | 218 | 6.0 | 11.0 | 0.04 | 0.58 | 0.58 | 95 | 1009.7 |
| 20260509180513 | 51 | 195 | 4.0 | 13.0 | 0.04 | 0.58 | 0.58 | 96 | 1009.7 |
| 20260509180028 | 51 | 173 | 5.0 | 13.0 | 0.04 | 0.58 | 0.58 | 96 | 1009.6 |
| 20260509175513 | 51 | 168 | 6.0 | 14.0 | 0.04 | 0.58 | 0.58 | 96 | 1009.6 |
| 20260509175011 | 51 | 200 | 6.0 | 14.0 | 0.05 | 0.58 | 0.58 | 96 | 1009.6 |
| 20260509174526 | 51 | 185 | 4.0 | 16.0 | 0.04 | 0.58 | 0.57 | 96 | 1009.6 |
| 20260509174013 | 51 | 201 | 6.0 | 14.0 | 0.04 | 0.58 | 0.57 | 96 | 1009.6 |
| 20260509173512 | 51 | 196 | 5.0 | 14.0 | 0.04 | 0.57 | 0.56 | 96 | 1009.6 |
| 20260509173028 | 51 | 195 | 4.0 | 12.0 | 0.04 | 0.57 | 0.56 | 96 | 1009.6 |
| 20260509172513 | 51 | 223 | 4.0 | 9.0 | 0.03 | 0.56 | 0.55 | 96 | 1009.7 |
| 20260509172013 | 51 | 160 | 2.0 | 11.0 | 0.03 | 0.56 | 0.55 | 96 | 1009.6 |
| 20260509171528 | 51 | 198 | 3.0 | 10.0 | 0.02 | 0.55 | 0.54 | 96 | 1009.6 |
| 20260509171014 | 51 | 237 | 4.0 | 10.0 | 0.03 | 0.55 | 0.54 | 96 | 1009.7 |
| 20260509170512 | 51 | 196 | 3.0 | 10.0 | 0.03 | 0.55 | 0.54 | 96 | 1009.6 |
| 20260509170030 | 51 | 158 | 4.0 | 10.0 | 0.04 | 0.55 | 0.54 | 96 | 1009.6 |
| 20260509165511 | 51 | 225 | 3.0 | 8.0 | 0.04 | 0.55 | 0.54 | 96 | 1009.7 |
| 20260509165011 | 50 | 172 | 3.0 | 8.0 | 0.03 | 0.54 | 0.52 | 96 | 1009.7 |
| 20260509164530 | 50 | 193 | 3.0 | 8.0 | 0.04 | 0.54 | 0.52 | 96 | 1009.8 |
| 20260509164011 | 50 | 163 | 3.0 | 8.0 | 0.04 | 0.54 | 0.52 | 96 | 1009.7 |
| 20260509163515 | 50 | 215 | 3.0 | 8.0 | 0.04 | 0.52 | 0.52 | 96 | 1009.8 |
| 20260509163032 | 50 | 186 | 3.0 | 8.0 | 0.04 | 0.52 | 0.52 | 96 | 1009.7 |
| 20260509162513 | 50 | 155 | 3.0 | 8.0 | 0.04 | 0.52 | 0.52 | 96 | 1009.7 |
| 20260509162015 | 50 | 172 | 1.0 | 5.0 | 0.05 | 0.52 | 0.52 | 97 | 1009.8 |
| 20260509161534 | 50 | 154 | 1.0 | 5.0 | 0.06 | 0.52 | 0.52 | 97 | 1009.8 |
| 20260509161014 | 50 | 156 | 1.0 | 5.0 | 0.05 | 0.52 | 0.51 | 96 | 1009.8 |
| 20260509160515 | 50 | 138 | 1.0 | 4.0 | 0.06 | 0.51 | 0.50 | 97 | 1009.8 |
| 20260509160030 | 50 | 188 | 0.0 | 4.0 | 0.06 | 0.51 | 0.50 | 97 | 1010.0 |
| 20260509155511 | 50 | 188 | 1.0 | 4.0 | 0.07 | 0.51 | 0.50 | 97 | 1010.1 |
| 20260509155011 | 50 | 0 | 0.0 | 5.0 | 0.08 | 0.51 | 0.50 | 96 | 1010.1 |
| 20260509154530 | 50 | 190 | 1.0 | 5.0 | 0.08 | 0.50 | 0.49 | 97 | 1010.2 |
| 20260509154011 | 50 | 206 | 0.0 | 4.0 | 0.09 | 0.50 | 0.49 | 96 | 1010.2 |
| 20260509153514 | 50 | 0 | 0.0 | 4.0 | 0.08 | 0.49 | 0.48 | 97 | 1010.3 |
| 20260509153028 | 50 | 0 | 1.0 | 5.0 | 0.09 | 0.49 | 0.48 | 97 | 1010.3 |
| 20260509152512 | 50 | 0 | 2.0 | 5.0 | 0.10 | 0.49 | 0.48 | 96 | 1010.4 |
| 20260509152012 | 50 | 145 | 1.0 | 4.0 | 0.10 | 0.48 | 0.47 | 97 | 1010.4 |
| 20260509151530 | 50 | 166 | 0.0 | 3.0 | 0.10 | 0.47 | 0.46 | 97 | 1010.5 |
| 20260509151011 | 50 | 0 | 0.0 | 3.0 | 0.09 | 0.46 | 0.45 | 97 | 1010.5 |
| 20260509150512 | 50 | 0 | 0.0 | 3.0 | 0.09 | 0.45 | 0.44 | 96 | 1010.6 |
| 20260509150028 | 50 | 0 | 0.0 | 3.0 | 0.10 | 0.45 | 0.44 | 96 | 1010.6 |
| 20260509145515 | 49 | 167 | 0.0 | 3.0 | 0.09 | 0.44 | 0.43 | 97 | 1010.6 |
| 20260509145011 | 49 | 0 | 0.0 | 1.0 | 0.09 | 0.43 | 0.42 | 97 | 1010.7 |
| 20260509144536 | 49 | 0 | 0.0 | 3.0 | 0.09 | 0.42 | 0.41 | 97 | 1010.7 |
| 20260509144012 | 49 | 0 | 0.0 | 3.0 | 0.08 | 0.41 | 0.40 | 97 | 1010.7 |
| 20260509143512 | 49 | 0 | 0.0 | 3.0 | 0.09 | 0.41 | 0.40 | 97 | 1010.8 |
| 20260509143030 | 49 | 0 | 0.0 | 3.0 | 0.09 | 0.40 | 0.39 | 97 | 1010.7 |
| 20260509142511 | 49 | 167 | 0.0 | 1.0 | 0.08 | 0.39 | 0.38 | 97 | 1010.7 |
| 20260509142013 | 49 | 0 | 0.0 | 3.0 | 0.07 | 0.38 | 0.37 | 97 | 1010.8 |
| 20260509141528 | 49 | 0 | 0.0 | 3.0 | 0.06 | 0.37 | 0.36 | 97 | 1010.8 |
| 20260509141017 | 49 | 0 | 1.0 | 3.0 | 0.06 | 0.36 | 0.35 | 96 | 1010.7 |
| 20260509140512 | 49 | 0 | 0.0 | 0.0 | 0.06 | 0.36 | 0.35 | 97 | 1010.7 |
| 20260509140030 | 49 | 0 | 0.0 | 0.0 | 0.05 | 0.35 | 0.34 | 97 | 1010.6 |
| 20260509135512 | 49 | 0 | 0.0 | 0.0 | 0.05 | 0.34 | 0.33 | 97 | 1010.5 |
| 20260509135013 | 49 | 0 | 0.0 | 0.0 | 0.05 | 0.34 | 0.33 | 97 | 1010.6 |
| 20260509134529 | 49 | 0 | 0.0 | 0.0 | 0.04 | 0.33 | 0.32 | 97 | 1010.5 |
| 20260509134012 | 49 | 0 | 0.0 | 0.0 | 0.04 | 0.33 | 0.32 | 97 | 1010.4 |
| 20260509133512 | 49 | 0 | 0.0 | 0.0 | 0.04 | 0.32 | 0.31 | 97 | 1010.3 |
| 20260509133030 | 49 | 0 | 0.0 | 0.0 | 0.03 | 0.31 | 0.30 | 97 | 1010.3 |
| 20260509132514 | 48 | 0 | 0.0 | 0.0 | 0.03 | 0.31 | 0.30 | 97 | 1010.3 |
| 20260509132013 | 48 | 0 | 0.0 | 0.0 | 0.04 | 0.31 | 0.30 | 97 | 1010.3 |
| 20260509131528 | 48 | 0 | 0.0 | 0.0 | 0.04 | 0.31 | 0.30 | 97 | 1010.4 |
| 20260509131014 | 48 | 0 | 0.0 | 0.0 | 0.03 | 0.30 | 0.29 | 97 | 1010.4 |
| 20260509130513 | 48 | 0 | 0.0 | 1.0 | 0.03 | 0.30 | 0.29 | 97 | 1010.3 |
| 20260509130028 | 48 | 0 | 0.0 | 1.0 | 0.03 | 0.30 | 0.29 | 97 | 1010.4 |
| 20260509125512 | 48 | 0 | 0.0 | 0.0 | 0.02 | 0.29 | 0.28 | 97 | 1010.4 |
| 20260509125012 | 48 | 0 | 0.0 | 0.0 | 0.02 | 0.29 | 0.28 | 97 | 1010.5 |
| 20260509124527 | 48 | 0 | 0.0 | 0.0 | 0.02 | 0.29 | 0.28 | 97 | 1010.6 |
| 20260509124014 | 48 | 0 | 0.0 | 0.0 | 0.01 | 0.28 | 0.27 | 97 | 1010.6 |
| 20260509123512 | 48 | 0 | 0.0 | 1.0 | 0.01 | 0.28 | 0.27 | 97 | 1010.5 |
| 20260509123030 | 48 | 0 | 0.0 | 0.0 | 0.01 | 0.28 | 0.27 | 97 | 1010.6 |
| 20260509122513 | 48 | 0 | 0.0 | 0.0 | 0.01 | 0.28 | 0.27 | 97 | 1010.4 |
| 20260509122012 | 48 | 0 | 0.0 | 0.0 | 0.00 | 0.27 | 0.26 | 97 | 1010.4 |
| 20260509121530 | 47 | 0 | 0.0 | 0.0 | 0.00 | 0.27 | 0.26 | 97 | 1010.5 |
| 20260509121012 | 47 | 0 | 0.0 | 0.0 | 0.00 | 0.27 | 0.26 | 97 | 1010.5 |
| 20260509120511 | 47 | 0 | 0.0 | 0.0 | 0.00 | 0.27 | 0.26 | 97 | 1010.5 |
| 20260509120030 | 47 | 0 | 0.0 | 0.0 | 0.00 | 0.27 | 0.26 | 97 | 1010.6 |
| 20260509115511 | 47 | 0 | 0.0 | 1.0 | 0.00 | 0.27 | 0.26 | 97 | 1010.6 |
| 20260509115011 | 47 | 0 | 0.0 | 1.0 | 0.00 | 0.27 | 0.26 | 97 | 1010.7 |
| 20260509114528 | 47 | 0 | 0.0 | 0.0 | 0.00 | 0.27 | 0.26 | 97 | 1010.7 |
| 20260509114012 | 47 | 0 | 0.0 | 0.0 | 0.00 | 0.27 | 0.26 | 97 | 1010.7 |
| 20260509113514 | 47 | 0 | 0.0 | 0.0 | 0.00 | 0.27 | 0.26 | 97 | 1010.7 |
| 20260509113033 | 47 | 0 | 0.0 | 0.0 | 0.00 | 0.27 | 0.26 | 97 | 1010.7 |
| 20260509112513 | 47 | 0 | 0.0 | 0.0 | 0.00 | 0.27 | 0.26 | 97 | 1010.8 |
| 20260509112010 | 46 | 0 | 0.0 | 0.0 | 0.00 | 0.27 | 0.26 | 97 | 1010.9 |
| 20260509111011 | 46 | 0 | 0.0 | 0.0 | 0.01 | 0.27 | 0.26 | 97 | 1010.8 |
| 20260509110512 | 46 | 0 | 0.0 | 0.0 | 0.01 | 0.27 | 0.26 | 97 | 1010.8 |
| 20260509110034 | 46 | 0 | 0.0 | 0.0 | 0.02 | 0.27 | 0.26 | 97 | 1010.9 |
| 20260509105513 | 46 | 0 | 0.0 | 0.0 | 0.02 | 0.27 | 0.26 | 97 | 1010.8 |
| 20260509105012 | 46 | 0 | 0.0 | 0.0 | 0.02 | 0.27 | 0.26 | 97 | 1010.9 |
| 20260509104537 | 46 | 0 | 0.0 | 0.0 | 0.03 | 0.27 | 0.26 | 97 | 1010.8 |
| 20260509104014 | 46 | 0 | 0.0 | 0.0 | 0.03 | 0.27 | 0.26 | 96 | 1010.9 |
| 20260509103511 | 46 | 0 | 0.0 | 0.0 | 0.04 | 0.27 | 0.26 | 96 | 1010.8 |
| 20260509103028 | 46 | 0 | 0.0 | 0.0 | 0.04 | 0.27 | 0.26 | 96 | 1010.8 |
| 20260509102510 | 46 | 0 | 0.0 | 0.0 | 0.04 | 0.27 | 0.26 | 96 | 1010.7 |
| 20260509101537 | 46 | 0 | 0.0 | 0.0 | 0.04 | 0.26 | 0.25 | 96 | 1010.7 |
| 20260509101017 | 46 | 0 | 0.0 | 0.0 | 0.04 | 0.26 | 0.25 | 96 | 1010.8 |
| 20260509100512 | 46 | 0 | 0.0 | 0.0 | 0.04 | 0.25 | 0.24 | 96 | 1010.8 |
| 20260509100031 | 46 | 0 | 0.0 | 0.0 | 0.04 | 0.25 | 0.24 | 96 | 1010.9 |
| 20260509095513 | 46 | 0 | 0.0 | 0.0 | 0.04 | 0.25 | 0.24 | 96 | 1010.9 |
| 20260509095013 | 46 | 0 | 0.0 | 0.0 | 0.03 | 0.24 | 0.23 | 96 | 1010.9 |
| 20260509094532 | 46 | 0 | 0.0 | 0.0 | 0.03 | 0.24 | 0.23 | 96 | 1010.9 |
| 20260509094011 | 46 | 0 | 0.0 | 0.0 | 0.03 | 0.24 | 0.23 | 96 | 1010.9 |
| 20260509093513 | 46 | 0 | 0.0 | 1.0 | 0.03 | 0.23 | 0.22 | 96 | 1010.8 |
| 20260509093042 | 46 | 0 | 0.0 | 1.0 | 0.03 | 0.23 | 0.22 | 96 | 1010.9 |
| 20260509092511 | 46 | 0 | 0.0 | 0.0 | 0.03 | 0.23 | 0.22 | 96 | 1011.0 |
| 20260509092011 | 46 | 0 | 0.0 | 0.0 | 0.03 | 0.22 | 0.21 | 96 | 1010.9 |
| 20260509091535 | 46 | 0 | 0.0 | 0.0 | 0.03 | 0.22 | 0.21 | 96 | 1011.0 |
| 20260509091013 | 46 | 0 | 0.0 | 0.0 | 0.04 | 0.22 | 0.21 | 96 | 1011.0 |
| 20260509090512 | 46 | 0 | 0.0 | 0.0 | 0.03 | 0.21 | 0.20 | 96 | 1011.0 |
| 20260509085515 | 46 | 0 | 0.0 | 1.0 | 0.04 | 0.21 | 0.20 | 96 | 1011.1 |
| 20260509085013 | 45 | 0 | 0.0 | 1.0 | 0.05 | 0.21 | 0.20 | 96 | 1011.0 |
| 20260509084541 | 46 | 0 | 0.0 | 0.0 | 0.05 | 0.21 | 0.20 | 96 | 1011.1 |
| 20260509084011 | 46 | 0 | 0.0 | 0.0 | 0.06 | 0.21 | 0.20 | 96 | 1011.1 |
| 20260509083510 | 46 | 0 | 0.0 | 1.0 | 0.05 | 0.20 | 0.19 | 96 | 1011.2 |
| 20260509083029 | 46 | 0 | 0.0 | 1.0 | 0.05 | 0.20 | 0.19 | 96 | 1011.1 |
| 20260509082511 | 46 | 0 | 0.0 | 0.0 | 0.05 | 0.19 | 0.18 | 96 | 1011.0 |
| 20260509082011 | 46 | 0 | 0.0 | 2.0 | 0.05 | 0.19 | 0.18 | 96 | 1011.0 |
| 20260509081537 | 46 | 0 | 0.0 | 2.0 | 0.06 | 0.19 | 0.18 | 96 | 1011.1 |
| 20260509081016 | 46 | 0 | 0.0 | 2.0 | 0.05 | 0.18 | 0.17 | 96 | 1011.3 |
| 20260509080514 | 46 | 0 | 0.0 | 1.0 | 0.06 | 0.18 | 0.17 | 96 | 1011.3 |
| 20260509080041 | 46 | 0 | 0.0 | 0.0 | 0.07 | 0.18 | 0.17 | 96 | 1011.4 |
| 20260509075514 | 46 | 0 | 0.0 | 0.0 | 0.06 | 0.17 | 0.16 | 96 | 1011.5 |
| 20260509075012 | 46 | 0 | 0.0 | 0.0 | 0.06 | 0.16 | 0.15 | 96 | 1011.4 |
| 20260509074528 | 46 | 0 | 0.0 | 1.0 | 0.06 | 0.15 | 0.14 | 96 | 1011.4 |
| 20260509074017 | 46 | 0 | 0.0 | 1.0 | 0.07 | 0.15 | 0.14 | 95 | 1011.5 |
| 20260509073513 | 46 | 0 | 0.0 | 2.0 | 0.08 | 0.15 | 0.14 | 95 | 1011.5 |
| 20260509073034 | 46 | 0 | 0.0 | 2.0 | 0.08 | 0.15 | 0.14 | 95 | 1011.4 |
| 20260509072513 | 46 | 0 | 0.0 | 2.0 | 0.08 | 0.14 | 0.13 | 95 | 1011.6 |
| 20260509072011 | 46 | 0 | 0.0 | 2.0 | 0.08 | 0.14 | 0.13 | 95 | 1011.6 |
| 20260509071526 | 46 | 0 | 0.0 | 0.0 | 0.08 | 0.13 | 0.12 | 95 | 1011.6 |
| 20260509071012 | 46 | 0 | 0.0 | 1.0 | 0.07 | 0.12 | 0.11 | 95 | 1011.6 |
| 20260509070510 | 46 | 0 | 0.0 | 4.0 | 0.08 | 0.12 | 0.11 | 95 | 1011.6 |
| 20260509070030 | 45 | 171 | 0.0 | 5.0 | 0.07 | 0.11 | 0.10 | 95 | 1011.6 |
| 20260509065510 | 45 | 175 | 0.0 | 5.0 | 0.06 | 0.10 | 0.09 | 95 | 1011.7 |
| 20260509065011 | 45 | 0 | 0.0 | 1.0 | 0.06 | 0.10 | 0.09 | 95 | 1011.7 |
| 20260509064528 | 45 | 0 | 0.0 | 2.0 | 0.06 | 0.09 | 0.08 | 95 | 1011.8 |
| 20260509064014 | 45 | 0 | 0.0 | 2.0 | 0.05 | 0.08 | 0.07 | 95 | 1011.8 |
| 20260509063509 | 45 | 0 | 0.0 | 2.0 | 0.04 | 0.07 | 0.06 | 95 | 1012.0 |
| 20260509063029 | 45 | 0 | 0.0 | 2.0 | 0.05 | 0.07 | 0.06 | 95 | 1012.0 |
| 20260509062512 | 45 | 185 | 0.0 | 2.0 | 0.04 | 0.06 | 0.05 | 95 | 1011.9 |
| 20260509062013 | 45 | 185 | 0.0 | 3.0 | 0.04 | 0.06 | 0.05 | 94 | 1012.0 |
| 20260509061528 | 45 | 0 | 1.0 | 3.0 | 0.04 | 0.05 | 0.04 | 94 | 1012.0 |
| 20260509061018 | 45 | 185 | 1.0 | 3.0 | 0.04 | 0.05 | 0.04 | 94 | 1011.9 |
| 20260509060514 | 45 | 185 | 0.0 | 2.0 | 0.03 | 0.04 | 0.03 | 94 | 1011.9 |
| 20260509060029 | 45 | 0 | 0.0 | 0.0 | 0.03 | 0.04 | 0.03 | 94 | 1011.7 |
| 20260509055515 | 45 | 0 | 0.0 | 1.0 | 0.03 | 0.05 | 0.03 | 94 | 1011.6 |
| 20260509055014 | 45 | 0 | 0.0 | 1.0 | 0.03 | 0.05 | 0.03 | 94 | 1011.5 |
| 20260509054532 | 46 | 0 | 0.0 | 0.0 | 0.02 | 0.04 | 0.02 | 94 | 1011.6 |
| 20260509054013 | 45 | 0 | 0.0 | 0.0 | 0.02 | 0.04 | 0.02 | 93 | 1011.6 |
| 20260509053510 | 45 | 0 | 0.0 | 0.0 | 0.02 | 0.04 | 0.02 | 93 | 1011.7 |
| 20260509053035 | 45 | 0 | 0.0 | 0.0 | 0.01 | 0.03 | 0.01 | 93 | 1011.7 |
| 20260509052512 | 45 | 0 | 0.0 | 0.0 | 0.01 | 0.03 | 0.01 | 93 | 1011.7 |
| 20260509052012 | 45 | 0 | 0.0 | 0.0 | 0.01 | 0.03 | 0.01 | 93 | 1011.7 |
| 20260509051537 | 45 | 0 | 0.0 | 2.0 | 0.00 | 0.02 | 0.00 | 93 | 1011.8 |
| 20260509051010 | 45 | 0 | 0.0 | 2.0 | 0.00 | 0.02 | 0.00 | 93 | 1011.9 |
| 20260509050512 | 45 | 0 | 0.0 | 0.0 | 0.00 | 0.02 | 0.00 | 93 | 1011.8 |
| 20260509050029 | 45 | 0 | 0.0 | 0.0 | 0.00 | 0.02 | 0.00 | 93 | 1011.7 |
| 20260509045514 | 45 | 0 | 0.0 | 0.0 | 0.00 | 0.11 | 0.00 | 93 | 1011.6 |
| 20260509045013 | 45 | 0 | 0.0 | 0.0 | 0.00 | 0.11 | 0.00 | 93 | 1011.6 |
| 20260509044527 | 45 | 0 | 0.0 | 0.0 | 0.00 | 0.11 | 0.00 | 93 | 1011.8 |
| 20260509044010 | 45 | 0 | 0.0 | 0.0 | 0.00 | 0.11 | 0.00 | 92 | 1011.8 |
| 20260509043511 | 45 | 0 | 0.0 | 0.0 | 0.00 | 0.11 | 0.00 | 92 | 1011.9 |
| 20260509043028 | 45 | 0 | 0.0 | 0.0 | 0.00 | 0.11 | 0.00 | 92 | 1011.9 |
| 20260509042512 | 45 | 0 | 0.0 | 0.0 | 0.00 | 0.11 | 0.00 | 92 | 1012.0 |
| 20260509042013 | 45 | 0 | 0.0 | 0.0 | 0.00 | 0.11 | 0.00 | 92 | 1012.0 |
| 20260509041528 | 44 | 0 | 0.0 | 0.0 | 0.00 | 0.11 | 0.00 | 92 | 1011.9 |
| 20260509041012 | 44 | 0 | 0.0 | 0.0 | 0.00 | 0.11 | 0.00 | 92 | 1012.0 |
| 20260509040514 | 44 | 0 | 0.0 | 0.0 | 0.00 | 0.11 | 0.00 | 92 | 1012.0 |
| 20260509040030 | 44 | 0 | 0.0 | 0.0 | 0.00 | 0.11 | 0.00 | 92 | 1012.1 |
| 20260509035512 | 44 | 0 | 0.0 | 0.0 | 0.00 | 0.11 | 0.11 | 91 | 1012.1 |
| 20260509035012 | 44 | 0 | 0.0 | 0.0 | 0.00 | 0.11 | 0.11 | 91 | 1012.1 |
| 20260509034530 | 44 | 0 | 0.0 | 2.0 | 0.00 | 0.11 | 0.11 | 91 | 1012.0 |
| 20260509034010 | 43 | 0 | 0.0 | 2.0 | 0.00 | 0.11 | 0.11 | 91 | 1012.0 |
| 20260509033512 | 43 | 185 | 1.0 | 2.0 | 0.00 | 0.11 | 0.11 | 90 | 1012.0 |
| 20260509033026 | 43 | 0 | 0.0 | 2.0 | 0.00 | 0.11 | 0.11 | 90 | 1012.0 |
| 20260509032513 | 43 | 0 | 0.0 | 2.0 | 0.00 | 0.11 | 0.11 | 90 | 1012.0 |
| 20260509032011 | 44 | 0 | 0.0 | 0.0 | 0.00 | 0.11 | 0.11 | 90 | 1011.9 |
| 20260509031532 | 43 | 0 | 0.0 | 2.0 | 0.00 | 0.11 | 0.11 | 89 | 1011.9 |
| 20260509031016 | 44 | 0 | 0.0 | 3.0 | 0.00 | 0.11 | 0.11 | 89 | 1012.0 |
| 20260509030513 | 44 | 185 | 1.0 | 3.0 | 0.00 | 0.11 | 0.11 | 88 | 1012.0 |
| 20260509030030 | 44 | 185 | 2.0 | 3.0 | 0.00 | 0.11 | 0.11 | 88 | 1011.8 |
| 20260509025512 | 44 | 0 | 0.0 | 0.0 | 0.00 | 0.11 | 0.11 | 88 | 1011.9 |
| 20260509025011 | 45 | 0 | 0.0 | 0.0 | 0.00 | 0.11 | 0.11 | 88 | 1011.8 |
| 20260509024527 | 45 | 0 | 0.0 | 0.0 | 0.00 | 0.11 | 0.11 | 88 | 1011.9 |
| 20260509024010 | 44 | 0 | 0.0 | 0.0 | 0.00 | 0.11 | 0.11 | 88 | 1011.9 |
| 20260509023517 | 45 | 0 | 0.0 | 0.0 | 0.00 | 0.11 | 0.11 | 88 | 1011.9 |
| 20260509023030 | 45 | 0 | 0.0 | 2.0 | 0.00 | 0.11 | 0.11 | 87 | 1012.0 |
| 20260509022512 | 45 | 0 | 0.0 | 2.0 | 0.00 | 0.11 | 0.11 | 87 | 1011.9 |
| 20260509022012 | 45 | 185 | 1.0 | 2.0 | 0.00 | 0.11 | 0.11 | 87 | 1011.8 |
| 20260509021527 | 45 | 185 | 0.0 | 2.0 | 0.00 | 0.11 | 0.11 | 87 | 1011.9 |
| 20260509021014 | 45 | 0 | 0.0 | 0.0 | 0.00 | 0.11 | 0.11 | 86 | 1012.1 |
| 20260509020513 | 45 | 0 | 0.0 | 0.0 | 0.00 | 0.11 | 0.11 | 86 | 1012.0 |
| 20260509020033 | 45 | 0 | 0.0 | 0.0 | 0.00 | 0.11 | 0.11 | 85 | 1011.9 |
| 20260509015513 | 46 | 0 | 0.0 | 0.0 | 0.00 | 0.11 | 0.11 | 85 | 1012.0 |
| 20260509015010 | 46 | 0 | 0.0 | 0.0 | 0.00 | 0.11 | 0.11 | 84 | 1011.8 |
| 20260509014538 | 46 | 0 | 0.0 | 0.0 | 0.00 | 0.11 | 0.11 | 84 | 1011.8 |
| 20260509014014 | 46 | 0 | 0.0 | 0.0 | 0.00 | 0.11 | 0.11 | 83 | 1011.8 |
| 20260509013510 | 47 | 0 | 0.0 | 0.0 | 0.00 | 0.11 | 0.11 | 83 | 1011.8 |
| 20260509013030 | 47 | 0 | 0.0 | 0.0 | 0.00 | 0.11 | 0.11 | 82 | 1011.8 |
| 20260509012512 | 48 | 0 | 0.0 | 0.0 | 0.00 | 0.11 | 0.11 | 81 | 1011.7 |
| 20260509012011 | 48 | 0 | 0.0 | 2.0 | 0.00 | 0.11 | 0.11 | 81 | 1011.8 |
| 20260509011528 | 48 | 0 | 0.0 | 2.0 | 0.00 | 0.11 | 0.11 | 81 | 1011.7 |
| 20260509011013 | 48 | 0 | 1.0 | 2.0 | 0.00 | 0.11 | 0.11 | 81 | 1011.7 |
| 20260509010512 | 48 | 185 | 1.0 | 2.0 | 0.00 | 0.11 | 0.11 | 81 | 1011.7 |
| 20260509010028 | 48 | 0 | 0.0 | 2.0 | 0.00 | 0.11 | 0.11 | 81 | 1011.5 |
| 20260509005516 | 48 | 0 | 0.0 | 3.0 | 0.00 | 0.11 | 0.11 | 81 | 1011.5 |
| 20260509005012 | 48 | 186 | 0.0 | 3.0 | 0.00 | 0.11 | 0.11 | 81 | 1011.4 |
| 20260509004528 | 48 | 0 | 0.0 | 2.0 | 0.00 | 0.11 | 0.11 | 81 | 1011.3 |
| 20260509004013 | 48 | 0 | 0.0 | 2.0 | 0.00 | 0.11 | 0.11 | 80 | 1011.3 |
| 20260509003510 | 49 | 0 | 0.0 | 2.0 | 0.00 | 0.11 | 0.11 | 80 | 1011.2 |
| 20260509003032 | 49 | 0 | 0.0 | 3.0 | 0.00 | 0.11 | 0.11 | 80 | 1011.1 |
| 20260509002509 | 49 | 0 | 1.0 | 3.0 | 0.00 | 0.11 | 0.11 | 80 | 1011.2 |
| 20260509002014 | 49 | 185 | 1.0 | 3.0 | 0.00 | 0.11 | 0.11 | 80 | 1011.2 |
| 20260509001530 | 49 | 185 | 1.0 | 4.0 | 0.00 | 0.11 | 0.11 | 80 | 1011.2 |
| 20260509001012 | 49 | 185 | 0.0 | 4.0 | 0.00 | 0.11 | 0.11 | 80 | 1011.3 |
| 20260509000512 | 49 | 185 | 0.0 | 2.0 | 0.00 | 0.11 | 0.11 | 80 | 1011.2 |
| 20260509000029 | 49 | 0 | 0.0 | 1.0 | 0.00 | 0.11 | 0.11 | 79 | 1011.3 |
| 20260508235512 | 49 | 185 | 0.0 | 1.0 | 0.00 | 0.11 | 0.11 | 79 | 1011.2 |
| 20260508235011 | 50 | 0 | 0.0 | 2.0 | 0.00 | 0.11 | 0.11 | 78 | 1011.1 |
| 20260508234528 | 50 | 0 | 0.0 | 3.0 | 0.00 | 0.11 | 0.11 | 77 | 1011.0 |
| 20260508234009 | 50 | 185 | 1.0 | 4.0 | 0.00 | 0.11 | 0.11 | 76 | 1011.0 |
| 20260508233510 | 50 | 185 | 0.0 | 4.0 | 0.00 | 0.11 | 0.11 | 76 | 1010.8 |
| 20260508233034 | 51 | 186 | 2.0 | 6.0 | 0.00 | 0.11 | 0.11 | 74 | 1010.8 |
| 20260508232514 | 51 | 186 | 3.0 | 6.0 | 0.00 | 0.11 | 0.11 | 73 | 1010.7 |
| 20260508232018 | 51 | 177 | 3.0 | 7.0 | 0.00 | 0.11 | 0.11 | 73 | 1010.6 |
| 20260508231533 | 52 | 178 | 4.0 | 7.0 | 0.00 | 0.11 | 0.11 | 72 | 1010.6 |
| 20260508231013 | 52 | 190 | 3.0 | 7.0 | 0.00 | 0.11 | 0.11 | 72 | 1010.6 |
| 20260508230512 | 52 | 182 | 4.0 | 9.0 | 0.00 | 0.11 | 0.11 | 71 | 1010.7 |
| 20260508230027 | 52 | 192 | 3.0 | 9.0 | 0.00 | 0.11 | 0.11 | 71 | 1010.7 |
| 20260508225512 | 52 | 217 | 3.0 | 9.0 | 0.00 | 0.11 | 0.11 | 70 | 1010.8 |
| 20260508225013 | 53 | 182 | 4.0 | 9.0 | 0.00 | 0.11 | 0.11 | 68 | 1010.7 |
| 20260508224528 | 53 | 188 | 4.0 | 9.0 | 0.00 | 0.11 | 0.11 | 67 | 1010.7 |